Regional Weather Roundup
Issued by NWS Sioux Falls, SD

Home | Current Version | Previous Version | Text Only | Print | Product List | Glossary Off
Versions: 1 2 3 4 5 6 7 8 9 10 11 12 13 14 15 16 17 18 19 20 21 22 23 24 25 26 27 28 29 30 31 32 33 34 35 36 37 38 39 40 41 42 43 44 45 46 47 48 49 50

000
ASUS43 KFSD 292202
RWRFSD

WEATHER ROUNDUP FOR SE SOUTH DAKOTA/SW MINNESOTA/NW IOWA
NATIONAL WEATHER SERVICE SIOUX FALLS SD
500 PM CDT SAT AUG 29 2015

NOTE: "FAIR" INDICATES FEW OR NO CLOUDS BELOW 12,000 FEET WITH NO
SIGNIFICANT WEATHER AND OR OBSTRUCTIONS TO VISIBILITY.


SDZ038>040-050-052>070-292300-
SOUTHEAST SOUTH DAKOTA

CITY           SKY/WX    TMP DP  RH WIND       PRES   REMARKS
BROOKINGS      MOSUNNY   75  64  69 S10       30.01F
CHAMBERLAIN    NOT AVBL
HURON          SUNNY     83  70  64 S14G22    29.93F
MADISON        FAIR      75  66  73 S9        30.01F
MITCHELL       SUNNY     81  69  67 S12       29.97F
SIOUX FALLS    CLOUDY    73  63  70 S9        30.01F
WINNER         FAIR      89  65  44 SE8       29.96F
YANKTON        SUNNY     77  66  69 SE9       29.99F
$$

MNZ071-072-080-081-089-090-097-098-292300-
SOUTHWEST MINNESOTA

CITY           SKY/WX    TMP DP  RH WIND       PRES   REMARKS
FAIRMONT       PTSUNNY   70  59  68 S7        30.05S
JACKSON        PTSUNNY   73  64  73 SW5       30.05S
LUVERNE        MOSUNNY   73  63  68 S6        30.03F
MARSHALL       PTSUNNY   77  63  61 S10       30.02S
MONTEVIDEO     PTSUNNY   79  64  61 S8        30.01S
PIPESTONE      MOSUNNY   73  63  68 S8        30.03S
REDWOOD FALLS  MOSUNNY   75  65  70 SE7       30.01F
TRACY          MOSUNNY   76  66  71 S6        30.02S
WINDOM         PTSUNNY   73  64  73 CALM      30.04S
WORTHINGTON    PTSUNNY   72  64  78 S6        30.04S
$$

IAZ001>003-012>014-020>022-031-032-NEZ013-014-SDZ071-292300-
NORTHWEST IOWA

CITY           SKY/WX    TMP DP  RH WIND       PRES   REMARKS
DENISON        CLOUDY    68  63  83 CALM      30.04S
ESTHERVILLE    PTSUNNY   69  64  84 SE8       30.04F
SIOUX CITY     PTSUNNY   71  62  73 SE8       30.04S
SPENCER        PTSUNNY   72  62  71 SW5       30.04F
$$

ABBREVIATIONS USED IN REMARKS
   TC - TEMPERATURE IN CELSIUS
  WCI - WIND CHILL INDEX
   HX - HEAT INDEX
  VSB - VISIBILITY




USA.gov is the U.S. government's official web portal to all federal, state and local government web resources and services.